www.pogodaiklimat.ru

Погода и климат >> Архив погоды >> Россия >> Краснодарский край >> Новороссийск


АРХИВ ПОГОДЫ в Новороссийске

Время (UTC), дата Ветер
(напр.,м/с)
 
Видим.   Явления Облачность Т
(С)
Тd
(С)
f
(%)
Тe
(С)
Тes
(С)
Комфортность P
(гПа)
Po
(гПа)
Тmin
(С)
Tmax
(С)
R
(мм)
R24
(мм)
S
(см)
21 16.06 ЮВ 2 10 км 3/3 600 м
[Sc]
+17.5 +11.7 69 +18 +18 по сезону 1016.8 1015.5
00 17.06 ЮВ 2 10 км 4/0
[Ci fib]
+17.7 +11.7 68 +18 +18 по сезону 1016.8 1015.5
03 17.06 ЮВ 2 20 км 6/6 1000 м
[Cu hum]
+18.2 +12.0 67 +19 +19 по сезону 1015.8 1014.5 +17.4
06 17.06 Ю 2 20 км 8/3 1000 м
[Cu med, cong Ac cast]
+20.3 +12.7 62 +23 +27 комфорт 1015.2 1013.9
09 17.06 ЮЗ 2 20 км 4/3 1000 м
[Cu hum Ci fib]
+21.7 +12.0 54 +24 +37 комфорт 1014.8 1013.5
12 17.06 ЮЗ 3 20 км 1/1 1000 м
[Cu hum]
+21.9 +12.2 54 +24 +35 комфорт 1013.3 1012.0
15 17.06 ЮЗ 1 20 км 3/0
[Ci fib]
+21.6 +12.5 56 +24 +27 комфорт 1011.7 1010.4 +23.0
18 17.06 В 2 10 км 4/0
[Ci fib]
+18.0 +13.2 74 +19 +19 по сезону 1011.2 1009.9
21 17.06 В 7-11
{11}
10 км 1/0
[Ci sp]
+19.7 +10.4 55 +20 +20 тепло 1009.9 1008.6
00 18.06 В 7-11
{12}
10 км ясно +19.0 +10.8 59 +19 +19 тепло 1008.8 1007.5
03 18.06 В 8-12
{13}
20 км 8/0
[Cs]
+19.3 +9.5 53 +19 +20 по сезону 1008.0 1006.7 +17.7
06 18.06 В 7-11
{14}
20 км 10/0
[Cc]
+22.5 +9.6 44 +24 +26 комфорт 1008.2 1006.9
09 18.06 СВ 6-12
{12}
20 км 10/8 1000 м
[Sc Ac trans Cc]
+22.9 +12.5 52 +26 +26 жарко 1009.3 1008.0
12 18.06 Ю 2
{12}
20 км 10/10 1000 м
[Cb calv]
+22.2 +13.0 56 +25 +25 комфорт 1009.5 1008.2
15 18.06 ЮЗ 2 20 км 9/3 1000 м
[Sc diur, vesp Ac trans Cc]
+22.1 +14.5 62 +25 +27 комфорт 1009.9 1008.6 +23.9
18 18.06 В 2 10 км 10/0
[Ac lent Cc]
+18.9 +13.4 70 +20 +20 по сезону 1010.2 1008.9
21 18.06 СЗ 1 10 км 10/0
[Cc]
+20.3 +12.3 60 +23 +23 комфорт 1009.7 1008.4
00 19.06 СВ 2 10 км 10/0
[Ac trans Cc]
+20.6 +10.7 53 +23 +23 комфорт 1009.1 1007.8
03 19.06 ЮВ 2 20 км в посл. час дождь 10/8 1000 м
[Sc Ac trans Cc]
+20.3 +12.8 62 +23 +23 комфорт 1009.4 1008.2 +18.8
06 19.06 ЮВ 1 20 км {дождь} 10/1 600 м
[Cu hum Ac trans Cc]
+20.4 +13.1 63 +24 +29 комфорт 1010.1 1008.8
09 19.06 Ю 1 20 км в посл. час ливневой дождь 10/5 1000 м
[Cb calv Ac trans Cs]
+22.1 +14.2 61 +25 +31 комфорт 1010.0 1008.7
12 19.06 СВ 6-12
{11}
20 км {ливн. осадки} 10/5 1000 м
[Cb calv Ac As]
+23.0 +12.6 52 +26 +27 жарко 1008.7 1007.4
15 19.06 СВ 6-12
{14}
20 км 10/5 1000 м
[Sc diur, vesp Ac trans Cs]
+22.8 +13.3 55 +26 +26 жарко 1008.3 1007.0 +24.5
18 19.06 СВ 4
{13}
10 км 10/6 600 м
[Cb calv Ac und]
+22.1 +13.3 57 +25 +25 комфорт 1008.7 1007.4
21 19.06 З 1 10 км 6/1 600 м
[Sc Ac trans]
+21.5 +13.6 61 +24 +24 комфорт 1008.2 1006.9
00 20.06 В 3 10 км в посл. час ливневой дождь 8/6 600 м
[Cb cap Ac trans]
+19.6 +14.9 74 +22 +22 комфорт 1007.4 1006.1
03 20.06 В 2 10 км слабый ливневой дождь 10/5 1000 м
[Cb cap Ac As]
+18.6 +14.4 77 +20 +20 по сезону 1007.1 1005.8 +18.6 2
06 20.06 ЮВ 2 20 км слабый ливневой дождь 10/10 600 м
[Cb cap]
+17.9 +13.2 74 +18 +18 холодно 1008.1 1006.8 +17.6
09 20.06 штиль 0 20 км слабый ливневой дождь 10/10 600 м
[Cb cap]
+18.3 +15.1 82 +19 +19 холодно 1009.0 1007.7
12 20.06 СВ 1 20 км слабый ливневой дождь 10/10 600 м
[Cb cap]
+19.1 +14.9 77 +22 +22 комфорт 1009.7 1008.4
15 20.06 В 2 20 км {ливн. осадки} 9/9 600 м
[Cb calv]
+20.4 +13.9 66 +23 +24 комфорт 1009.1 1007.9 +20.7 10
18 20.06 СВ 1 10 км {ливн. осадки} 8/4 600 м
[Sc Ac trans]
+17.6 +14.0 79 +19 +19 прохладно 1010.2 1008.9
21 20.06 В 2 10 км ясно +16.6 +13.9 84 +17 +17 прохладно 1010.2 1008.9
00 21.06 В 1 10 км ясно +16.4 +13.9 85 +17 +17 по сезону 1010.2 1008.9
03 21.06 В 1 20 км ясно +16.5 +14.4 87 +17 +18 прохладно 1010.2 1008.9 +15.7
06 21.06 ЮЗ 1 20 км 4/3 600 м
[Cu Sc Ac trans]
+20.8 +16.4 76 +25 +33 комфорт 1010.5 1009.2
09 21.06 ЮЗ 1 20 км 1/1 1000 м
[Cu med, cong]
+22.4 +16.8 71 +27 +47 душно 1010.6 1009.3
12 21.06 ЮЗ 3 20 км ясно +22.8 +16.7 68 +27 +39 душно 1010.9 1009.6
15 21.06 Ю 2 20 км ясно +22.7 +18.8 79 +29 +31 очень
душно
1010.7 1010.4 +23.4
18 21.06 СВ 1 10 км 3/0
[Ci fib]
+20.0 +16.5 80 +24 +24 комфорт 1011.0 1010.6
21 21.06 В 2 10 км 4/0
[Ac trans]
+19.8 +17.4 86 +23 +23 комфорт 1011.0 1010.6
00 22.06 В 2 10 км 8/3 600 м
[Sc Ac trans]
+19.6 +18.3 92 +23 +23 комфорт 1011.0 1010.6
03 22.06 В 1 10 км 6/3 600 м
[Sc Ac trans]
+20.4 +19.5 95 +26 +26 душно 1011.0 1010.6 +19.6
06 22.06 Ю 2 20 км 10/10 300 м
[Cb calv]
+21.6 +17.2 76 +26 +26 душно 1011.4 1010.1
09 22.06 Ю 3 20 км 9/8 300 м
[Cb calv Cs]
+23.8 +18.0 70 +28 +31 душно 1012.3 1011.0
12 22.06 Ю 2 20 км 10/10 300 м
[Cb calv]
+23.0 +17.9 73 +28 +28 душно 1012.9 1011.6
15 22.06 Ю 2 20 км гроза без осадков 10/6 300 м
[Cb calv Ac trans Ci sp]
+22.3 +17.9 76 +27 +28 душно 1013.3 1012.0 +24.4
18 22.06 В 1 10 км {гроза, ливн. осадки} 9/3 300 м
[Sc diur, vesp Ac trans Ci fib]
+20.8 +18.1 85 +26 +26 душно 1013.9 1012.6
21 22.06 В 2 10 км 3/3 300 м
[Sc diur, vesp]
+18.6 +16.4 87 +20 +20 по сезону 1014.7 1013.4
00 23.06 СВ 1 10 км ясно +17.7 +15.7 88 +19 +19 по сезону 1014.1 1012.8
03 23.06 штиль 0 20 км 8/3 600 м
[Cu Sc Ac trans Cc]
+18.2 +16.4 89 +19 +19 по сезону 1014.1 1012.8 +17.3 7
06 23.06 З 1 20 км 5/5 600 м
[Cu med, cong]
+21.8 +17.4 76 +26 +32 душно 1015.0 1013.7
09 23.06 ЮЗ 2 10 км 10/10 300 м
[Cb calv]
+21.2 +18.4 84 +25 +25 комфорт 1015.4 1014.1
12 23.06 Ю 2 20 км 8/5 300 м
[Sc diur, vesp Ac trans]
+23.5 +17.6 69 +27 +32 душно 1014.8 1013.6
15 23.06 ЮЗ 3 20 км 5/3 600 м
[Sc diur, vesp Cc]
+23.1 +18.7 76 +29 +31 очень
душно
1014.2 1012.9 +24.6
18 23.06 Ю 2 10 км 3/3 300 м
[Sc diur, vesp]
+21.6 +17.8 79 +26 +26 душно 1013.9 1012.6

 

Местоположение метеостанции Новороссийск (Краснодарский край, Россия): широта 44.72 долгота 37.85 высота над уровнем моря 3 м.

В архиве по умолчанию представлена погода в Новороссийске за последнюю неделю. Архивные данные за месяц целиком и за предыдущие месяцы, начиная с января 2011 года, Вы можете получить, выбрав интересующий диапазон дат из раскрывающегося списка и нажав кнопку "Ввод!".

Внимание! Время в таблицах - всемирное. Для получения местного времени необходимо прибавить поправку, которая в Новороссийске равна 3 ч.

Смотрите также архив погоды в соседних городах и на ближайших метеорологических станциях:

Погода в Геленджике (Краснодарский край, Россия) (25 км)
Погода в Крымске (Краснодарский край, Россия) (25 км)
Погода в Анапе (Краснодарский край, Россия) (48 км)
Погода в Славянске-на-Кубани (Краснодарский край, Россия) (66 км)
Погода в Темрюке (Краснодарский край, Россия) (76 км)
Погода в Джубге (Краснодарский край, Россия) (81 км)
Погода в Горячем Ключе (Краснодарский край, Россия) (99 км)
Погода в Краснодаре (Краснодарский край, Россия) (100 км)
Погода в Тамани (Краснодарский край, Россия) (105 км)
Погода в Туапсе (Краснодарский край, Россия) (119 км)

Пояснения к столбцам:

Ветер - указаны скорость ветра в м/с - средняя за 10 мин, порывы в срок и между сроками (в фигурных скобках) и направление, откуда дует ветер: С - северный, СВ - северо-восточный, В - восточный, ЮВ - юго-восточный, Ю - южный, ЮЗ - юго-западный, З - западный, СЗ - северо-западный.
Видимость - горизонтальная дальность видимости в метрах или километрах. При видимости от 1 до 10 км при отсутствии осадков обычно наблюдается дымка, при ухудшении видимости до 1 км и менее - туман. В сухую погоду видимость может ухудшаться дымом, пылью или мглою.
Явления - указаны атмосферные явления, наблюдавшиеся в срок или в последний час перед сроком; фигурными скобками обозначены явления, наблюдавшиеся между сроками (за 1-3 часа до срока); квадратными скобками обозначены град или гололедные отложения с указанием их диаметра в мм.
Облачность - указаны через наклонную черту общая и нижняя облачность в баллах и высота нижней границы облаков в метрах; квадратными скобками обозначены формы облаков: Ci - перистые, Cs - перисто-слоистые, Cc - перисто-кучевые, Ac - высококучевые, As - высокослоистые, Sc - слоисто-кучевые, Ns - слоисто-дождевые, Cu - кучевые, Cb - кучево-дождевые. Подробнее классификацию облаков см. в Атласе облаков (PDF).
T - Температура воздуха - температура, измеренная на высоте 2 м над землей.
Td - Температура точки росы - температура, при понижении до которой содержащийся в воздухе водяной пар достигнет насыщения.
f - Относительная влажность воздуха - влажноcть воздуха, измеренная на высоте 2 м над землей.
Te - Эффективная температура - температура, которую ощущает одетый по сезону человек в тени. Характеристика душности погоды. При расчете учитывается влияние влажности воздуха и скорости ветра на теплоощущения человека.
Tes - Эффективная температура на солнце - температура, которую ощущает человек, с поправкой на солнечный нагрев. Характеристика знойности погоды. Зависит от высоты солнца над горизонтом, облачности и скорости ветра. Ночью, в пасмурную погоду, а также при ветре 12 м/с и более поправка равна нулю.
P - Атмосферное давление - приведенное к уровню моря атмосферное давление.
Po - Атмосферное давление - измеренное на уровне метеостанции атмосферное давление.
Tmin - Минимальная температура - минимум температуры воздуха на высоте 2 м над землей.
Tmax - Максимальная температура - максимум температуры воздуха на высоте 2 м над землей.
R - Количество осадков - Количество выпавших осадков за период времени, мм. При наведении курсора мыши на число - период времени, за который выпало указанное количество осадков.
R24 - Количество осадков - Количество выпавших осадков за 24 часа, мм.
S - Снежный покров - Высота снежного покрова, см. При наведении курсора мыши на число - состояние снежного покрова и степень покрытия местности в баллах.